,,,PA_Meas_PMT16A,,PR_Meas_QMR101_102,,RH_Meas_QMH101,,SR_Meas_QMS101,,TA_Meas_QMH101,,GenWind,,GenWind,
date,time,status,PA,status,PR,status,RH,status,SR,status,TA,status,DirAvg,status,SpdAvg,
2014-10-18, 00:00:04,VALID,1008.95,VALID,0,VALID,98.8984,VALID,0,VALID,25.2532,VALID,156,VALID,0,
2014-10-18, 00:01:04,VALID,1008.96,VALID,0,VALID,99.2721,VALID,0,VALID,25.2532,VALID,156,VALID,0,
2014-10-18, 00:02:04,VALID,1008.96,VALID,0,VALID,99.6915,VALID,0,VALID,25.2337,VALID,156,VALID,0,
2014-10-18, 00:03:04,VALID,1008.98,VALID,0,VALID,100.347,VALID,0,VALID,25.2337,VALID,156,VALID,0,
2014-10-18, 00:04:04,VALID,1008.98,VALID,0,VALID,100.828,VALID,0,VALID,25.2142,VALID,156,VALID,0,
2014-10-18, 00:05:04,VALID,1008.97,VALID,0,VALID,101.346,VALID,0,VALID,25.1947,VALID,156,VALID,0,
2014-10-18, 00:06:04,VALID,1008.97,VALID,0,VALID,101.766,VALID,0,VALID,25.1947,VALID,156,VALID,0,
2014-10-18, 00:07:04,VALID,1008.99,VALID,0,VALID,102.048,VALID,0,VALID,25.1538,VALID,156,VALID,0,
2014-10-18, 00:08:04,VALID,1008.97,VALID,0,VALID,102.727,VALID,0.112112,VALID,25.1752,VALID,156,VALID,0,
2014-10-18, 00:09:04,VALID,1009.01,VALID,0,VALID,103.489,VALID,0,VALID,25.1771,VALID,156,VALID,0,
2014-10-18, 00:10:04,VALID,1009,VALID,0,VALID,104,VALID,0,VALID,25.1752,VALID,156,VALID,0,
2014-10-18, 00:11:04,VALID,1009.02,VALID,0,VALID,103.863,VALID,0,VALID,25.1966,VALID,156,VALID,0,
2014-10-18, 00:12:04,VALID,1009.01,VALID,0,VALID,103.413,VALID,0,VALID,25.1752,VALID,156,VALID,0,
2014-10-18, 00:13:04,VALID,1009.01,VALID,0,VALID,102.955,VALID,0,VALID,25.1947,VALID,156,VALID,0,
2014-10-18, 00:14:04,VALID,1008.97,VALID,0,VALID,102.46,VALID,0,VALID,25.1752,VALID,156,VALID,0,
2014-10-18, 00:15:04,VALID,1008.97,VALID,0,VALID,102.025,VALID,0,VALID,25.1752,VALID,156,VALID,0,
2014-10-18, 00:16:04,VALID,1008.91,VALID,0,VALID,101.598,VALID,0,VALID,25.1557,VALID,156,VALID,0,
2014-10-18, 00:17:04,VALID,1008.89,VALID,0,VALID,101.316,VALID,0,VALID,25.1557,VALID,156,VALID,0,
2014-10-18, 00:18:04,VALID,1008.87,VALID,0,VALID,100.912,VALID,0,VALID,25.1362,VALID,156,VALID,0,
2014-10-18, 00:19:04,VALID,1008.88,VALID,0,VALID,100.515,VALID,0,VALID,25.1362,VALID,156,VALID,0,
2014-10-18, 00:20:04,VALID,1008.9,VALID,0,VALID,100.591,VALID,0,VALID,25.1362,VALID,156,VALID,0,
2014-10-18, 00:21:04,VALID,1008.85,VALID,0,VALID,100.492,VALID,0,VALID,25.1167,VALID,156,VALID,0,
2014-10-18, 00:22:04,VALID,1008.85,VALID,0,VALID,100.767,VALID,0,VALID,25.1167,VALID,156,VALID,0,
2014-10-18, 00:23:04,VALID,1008.83,VALID,0,VALID,101.049,VALID,0,VALID,25.1167,VALID,156,VALID,0,
2014-10-18, 00:24:04,VALID,1008.84,VALID,0,VALID,100.965,VALID,0,VALID,25.0973,VALID,156,VALID,0,
2014-10-18, 00:25:04,VALID,1008.77,VALID,0,VALID,101.102,VALID,0,VALID,25.0973,VALID,156,VALID,0,
2014-10-18, 00:26:04,VALID,1008.76,VALID,0,VALID,101.339,VALID,0,VALID,25.0778,VALID,156,VALID,0,
2014-10-18, 00:27:04,VALID,1008.71,VALID,0,VALID,101.346,VALID,0,VALID,25.0583,VALID,156,VALID,0,
2014-10-18, 00:28:04,VALID,1008.67,VALID,0,VALID,101.156,VALID,0,VALID,25.0583,VALID,156,VALID,0,
2014-10-18, 00:29:04,VALID,1008.62,VALID,0,VALID,100.782,VALID,0.112112,VALID,25.0583,VALID,156,VALID,0,
2014-10-18, 00:30:04,VALID,1008.59,VALID,0,VALID,101.232,VALID,0,VALID,25.0564,VALID,156,VALID,0,
2014-10-18, 00:31:04,VALID,1008.56,VALID,0,VALID,101.644,VALID,0,VALID,25.0778,VALID,156,VALID,0,
2014-10-18, 00:32:04,VALID,1008.56,VALID,0,VALID,102.01,VALID,0,VALID,25.0583,VALID,156,VALID,0,
2014-10-18, 00:33:04,VALID,1008.56,VALID,0,VALID,102.421,VALID,0,VALID,25.0583,VALID,156,VALID,0,
2014-10-18, 00:34:04,VALID,1008.55,VALID,0,VALID,102.925,VALID,0,VALID,25.0388,VALID,156,VALID,0,
2014-10-18, 00:35:04,VALID,1008.54,VALID,0,VALID,102.536,VALID,0,VALID,25.0193,VALID,156,VALID,0,
2014-10-18, 00:36:04,VALID,1008.54,VALID,0,VALID,102.849,VALID,0,VALID,24.9998,VALID,156,VALID,0,
2014-10-18, 00:37:04,VALID,1008.51,VALID,0,VALID,103.817,VALID,0,VALID,25.0017,VALID,156,VALID,0,
2014-10-18, 00:38:04,VALID,1008.55,VALID,0,VALID,104,VALID,0,VALID,24.9608,VALID,156,VALID,0,
2014-10-18, 00:39:04,VALID,1008.59,VALID,0,VALID,104,VALID,0,VALID,24.9608,VALID,156,VALID,0,
2014-10-18, 00:40:04,VALID,1008.6,VALID,0,VALID,104,VALID,0,VALID,24.9413,VALID,156,VALID,0,
2014-10-18, 00:41:04,VALID,1008.62,VALID,0,VALID,104,VALID,0,VALID,24.9432,VALID,156,VALID,0,
2014-10-18, 00:42:04,VALID,1008.61,VALID,0,INVALID,109.208,VALID,0,VALID,24.9413,VALID,156,VALID,0,
2014-10-18, 00:43:04,VALID,1008.64,VALID,0,INVALID,110.49,VALID,0,VALID,24.9413,VALID,156,VALID,0,
2014-10-18, 00:44:04,VALID,1008.65,VALID,0,INVALID,111.275,VALID,0,VALID,24.9004,VALID,156,VALID,0,
2014-10-18, 00:45:04,VALID,1008.64,VALID,0,INVALID,112.083,VALID,0,VALID,24.9023,VALID,156,VALID,0,
2014-10-18, 00:46:04,VALID,1008.69,VALID,0,INVALID,112.686,VALID,0,VALID,24.9023,VALID,156,VALID,0,
2014-10-18, 00:47:04,VALID,1008.7,VALID,0,INVALID,112.945,VALID,0,VALID,24.9023,VALID,156,VALID,0,
2014-10-18, 00:48:04,VALID,1008.7,VALID,0,INVALID,113.174,VALID,0,VALID,24.9023,VALID,156,VALID,0,
2014-10-18, 00:49:04,VALID,1008.7,VALID,0,INVALID,112.976,VALID,0,VALID,24.9023,VALID,156,VALID,0,
2014-10-18, 00:50:04,VALID,1008.68,VALID,0,INVALID,113.174,VALID,0,VALID,24.9218,VALID,156,VALID,0,
2014-10-18, 00:51:04,VALID,1008.64,VALID,0,INVALID,112.388,VALID,0,VALID,24.9023,VALID,156,VALID,0,
2014-10-18, 00:52:04,VALID,1008.63,VALID,0,INVALID,111.679,VALID,0,VALID,24.9023,VALID,156,VALID,0,
2014-10-18, 00:53:04,VALID,1008.61,VALID,0,INVALID,110.329,VALID,0,VALID,24.8809,VALID,156,VALID,0,
2014-10-18, 00:54:04,VALID,1008.56,VALID,0,INVALID,109.864,VALID,0,VALID,24.8809,VALID,156,VALID,0,
2014-10-18, 00:55:04,VALID,1008.54,VALID,0,VALID,104,VALID,0,VALID,24.9023,VALID,156,VALID,0,
2014-10-18, 00:56:04,VALID,1008.51,VALID,0,VALID,104,VALID,0,VALID,24.8828,VALID,156,VALID,0,
2014-10-18, 00:57:04,VALID,1008.49,VALID,0,VALID,104,VALID,0,VALID,24.8828,VALID,156,VALID,0,
2014-10-18, 00:58:04,VALID,1008.43,VALID,0,VALID,104,VALID,0,VALID,24.8615,VALID,156,VALID,0,
2014-10-18, 00:59:04,VALID,1008.41,VALID,0,VALID,104,VALID,0,VALID,24.8828,VALID,156,VALID,0,
2014-10-18, 01:00:04,VALID,1008.41,VALID,0,VALID,104,VALID,0,VALID,24.8633,VALID,156,VALID,0,
2014-10-18, 01:01:04,VALID,1008.4,VALID,0,VALID,104,VALID,0,VALID,24.8828,VALID,323,VALID,0,
2014-10-18, 01:02:04,VALID,1008.42,VALID,0,VALID,104,VALID,0,VALID,24.8438,VALID,323,VALID,0,
2014-10-18, 01:03:04,VALID,1008.38,VALID,0,VALID,104,VALID,0,VALID,24.8828,VALID,323,VALID,0,
2014-10-18, 01:04:04,VALID,1008.38,VALID,0,VALID,104,VALID,0,VALID,24.9042,VALID,323,VALID,0,
2014-10-18, 01:05:04,VALID,1008.37,VALID,0,VALID,104,VALID,0,VALID,24.8615,VALID,323,VALID,0,
2014-10-18, 01:06:04,VALID,1008.32,VALID,0,VALID,104,VALID,0,VALID,24.9023,VALID,323,VALID,0,
2014-10-18, 01:07:04,VALID,1008.31,VALID,0,VALID,104,VALID,0,VALID,24.8828,VALID,323,VALID,0,
2014-10-18, 01:08:04,VALID,1008.3,VALID,0,VALID,104,VALID,0,VALID,24.8828,VALID,323,VALID,0,
2014-10-18, 01:09:04,VALID,1008.29,VALID,0,VALID,104,VALID,0,VALID,24.8828,VALID,323,VALID,0,
2014-10-18, 01:10:04,VALID,1008.29,VALID,0,VALID,104,VALID,0,VALID,24.8633,VALID,323,VALID,0,
2014-10-18, 01:11:04,VALID,1008.28,VALID,0,VALID,104,VALID,0,VALID,24.8633,VALID,323,VALID,0,
2014-10-18, 01:12:04,VALID,1008.29,VALID,0,VALID,104,VALID,0,VALID,24.8633,VALID,323,VALID,0,
2014-10-18, 01:13:04,VALID,1008.27,VALID,0,VALID,104,VALID,0,VALID,24.8633,VALID,323,VALID,0,
2014-10-18, 01:14:04,VALID,1008.27,VALID,0,VALID,104,VALID,0,VALID,24.8438,VALID,323,VALID,0,
2014-10-18, 01:15:04,VALID,1008.24,VALID,0,VALID,104,VALID,0,VALID,24.8633,VALID,323,VALID,0,
2014-10-18, 01:16:04,VALID,1008.26,VALID,0,VALID,104,VALID,0,VALID,24.842,VALID,323,VALID,0,
2014-10-18, 01:17:04,VALID,1008.2,VALID,0,VALID,104,VALID,0,VALID,24.8633,VALID,323,VALID,0,
2014-10-18, 01:18:04,VALID,1008.18,VALID,0,VALID,104,VALID,0,VALID,24.8438,VALID,323,VALID,0,
2014-10-18, 01:19:04,VALID,1008.18,VALID,0,VALID,104,VALID,0,VALID,24.8633,VALID,323,VALID,0,
2014-10-18, 01:20:04,VALID,1008.15,VALID,0,VALID,104,VALID,0,VALID,24.8438,VALID,323,VALID,0,
2014-10-18, 01:21:04,VALID,1008.12,VALID,0,VALID,104,VALID,0,VALID,24.8633,VALID,323,VALID,0,
2014-10-18, 01:22:04,VALID,1008.1,VALID,0,VALID,104,VALID,0,VALID,24.8633,VALID,323,VALID,0,
2014-10-18, 01:23:04,VALID,1008.11,VALID,0,VALID,104,VALID,0,VALID,24.8633,VALID,323,VALID,0,
2014-10-18, 01:24:04,VALID,1008.1,VALID,0,VALID,104,VALID,0,VALID,24.8438,VALID,323,VALID,0,
2014-10-18, 01:25:04,VALID,1008.06,VALID,0,VALID,104,VALID,0,VALID,24.8438,VALID,323,VALID,0,
2014-10-18, 01:26:04,VALID,1008.04,VALID,0,VALID,104,VALID,0,VALID,24.8438,VALID,323,VALID,0,
2014-10-18, 01:27:04,VALID,1008.04,VALID,0,INVALID,109.125,VALID,0,VALID,24.8244,VALID,323,VALID,0,
2014-10-18, 01:28:04,VALID,1008.01,VALID,0,INVALID,109.384,VALID,0,VALID,24.8049,VALID,323,VALID,0,
2014-10-18, 01:29:04,VALID,1008,VALID,0,INVALID,109.841,VALID,0,VALID,24.7835,VALID,323,VALID,0,
2014-10-18, 01:30:04,VALID,1008,VALID,0,INVALID,110.185,VALID,0,VALID,24.8049,VALID,323,VALID,0,
2014-10-18, 01:31:04,VALID,1008,VALID,0,INVALID,110.573,VALID,0.112112,VALID,24.764,VALID,323,VALID,0,
2014-10-18, 01:32:04,VALID,1008,VALID,0,INVALID,110.97,VALID,0,VALID,24.7854,VALID,323,VALID,0,
2014-10-18, 01:33:04,VALID,1008,VALID,0,INVALID,111.405,VALID,0,VALID,24.7659,VALID,323,VALID,0,
2014-10-18, 01:34:04,VALID,1008.01,VALID,0,INVALID,111.794,VALID,0,VALID,24.7659,VALID,323,VALID,0,
2014-10-18, 01:35:04,VALID,1008.01,VALID,0,INVALID,112.35,VALID,0,VALID,24.725,VALID,323,VALID,0,
2014-10-18, 01:36:04,VALID,1007.99,VALID,0,INVALID,113.258,VALID,0,VALID,24.7445,VALID,323,VALID,0,
2014-10-18, 01:37:04,VALID,1008.02,VALID,0,INVALID,114.036,VALID,0,VALID,24.7464,VALID,323,VALID,0,
2014-10-18, 01:38:04,VALID,1008.02,VALID,0,INVALID,114.615,VALID,0,VALID,24.7269,VALID,323,VALID,0,
2014-10-18, 01:39:04,VALID,1008.04,VALID,0,INVALID,115.141,VALID,0,VALID,24.7464,VALID,323,VALID,0,
2014-10-18, 01:40:04,VALID,1008.05,VALID,0,INVALID,115.774,VALID,0,VALID,24.7055,VALID,323,VALID,0,
2014-10-18, 01:41:04,VALID,1008.05,VALID,0,INVALID,116.621,VALID,0,VALID,24.7074,VALID,323,VALID,0,
2014-10-18, 01:42:04,VALID,1008.07,VALID,0,INVALID,117.643,VALID,0.112112,VALID,24.7269,VALID,323,VALID,0,
2014-10-18, 01:43:04,VALID,1008.04,VALID,0,INVALID,118.558,VALID,0,VALID,24.7269,VALID,323,VALID,0,
2014-10-18, 01:44:04,VALID,1008.02,VALID,0,INVALID,119.244,VALID,0,VALID,24.7269,VALID,323,VALID,0,
2014-10-18, 01:45:04,VALID,1007.99,VALID,0,INVALID,119.724,VALID,0,VALID,24.7269,VALID,323,VALID,0,
2014-10-18, 01:46:04,VALID,1007.98,VALID,0,INVALID,119.877,VALID,0,VALID,24.686,VALID,323,VALID,0,
2014-10-18, 01:47:04,VALID,1007.98,VALID,0,INVALID,119.984,VALID,0,VALID,24.7074,VALID,323,VALID,0,
2014-10-18, 01:48:04,VALID,1007.95,VALID,0,INVALID,120.228,VALID,0.112112,VALID,24.686,VALID,323,VALID,0,
2014-10-18, 01:49:04,VALID,1007.96,VALID,0,INVALID,120.601,VALID,0,VALID,24.686,VALID,323,VALID,0,
2014-10-18, 01:50:04,VALID,1007.92,VALID,0,INVALID,121.211,VALID,0,VALID,24.6879,VALID,323,VALID,0,
2014-10-18, 01:51:04,VALID,1007.92,VALID,0,INVALID,121.753,VALID,0,VALID,24.6879,VALID,323,VALID,0,
2014-10-18, 01:52:04,VALID,1007.87,VALID,0,INVALID,122.386,VALID,0,VALID,24.7074,VALID,323,VALID,0,
2014-10-18, 01:53:04,VALID,1007.84,VALID,0,INVALID,123.141,VALID,0,VALID,24.7074,VALID,323,VALID,0,
2014-10-18, 01:54:04,VALID,1007.81,VALID,0,INVALID,123.774,VALID,0,VALID,24.7074,VALID,323,VALID,0,
2014-10-18, 01:55:04,VALID,1007.82,VALID,0,INVALID,124.506,VALID,0,VALID,24.7074,VALID,323,VALID,0,
2014-10-18, 01:56:04,VALID,1007.81,VALID,0,INVALID,125.2,VALID,0,VALID,24.7074,VALID,323,VALID,0,
2014-10-18, 01:57:04,VALID,1007.79,VALID,0,INVALID,125.718,VALID,0,VALID,24.7269,VALID,323,VALID,0,
2014-10-18, 01:58:04,VALID,1007.79,VALID,0,INVALID,126.038,VALID,0.112112,VALID,24.7269,VALID,323,VALID,0,
2014-10-18, 01:59:04,VALID,1007.81,VALID,0,INVALID,126.305,VALID,0.112112,VALID,24.7464,VALID,323,VALID,0,
2014-10-18, 02:00:04,VALID,1007.79,VALID,0,INVALID,126.656,VALID,0,VALID,24.725,VALID,323,VALID,0,
2014-10-18, 02:01:04,VALID,1007.75,VALID,0,INVALID,126.893,VALID,0,VALID,24.7464,VALID,323,VALID,0,
2014-10-18, 02:02:04,VALID,1007.76,VALID,0,INVALID,127.03,VALID,0,VALID,24.7464,VALID,323,VALID,0,
2014-10-18, 02:03:04,VALID,1007.71,VALID,0,INVALID,127.159,VALID,0,VALID,24.7659,VALID,323,VALID,0,
2014-10-18, 02:04:04,VALID,1007.69,VALID,0,INVALID,127.098,VALID,0,VALID,24.7445,VALID,323,VALID,0,
2014-10-18, 02:05:04,VALID,1007.68,VALID,0,INVALID,126.954,VALID,0,VALID,24.7464,VALID,323,VALID,0,
2014-10-18, 02:06:04,VALID,1007.69,VALID,0,INVALID,126.717,VALID,0,VALID,24.7464,VALID,323,VALID,0,
2014-10-18, 02:07:04,VALID,1007.68,VALID,0,INVALID,126.633,VALID,0,VALID,24.7055,VALID,323,VALID,0,
2014-10-18, 02:08:04,VALID,1007.74,VALID,0,INVALID,126.649,VALID,0,VALID,24.7074,VALID,323,VALID,0,
2014-10-18, 02:09:04,VALID,1007.74,VALID,0,INVALID,127.137,VALID,0,VALID,24.686,VALID,323,VALID,0,
2014-10-18, 02:10:04,VALID,1007.74,VALID,0,INVALID,127.625,VALID,0.112112,VALID,24.7074,VALID,323,VALID,0,
2014-10-18, 02:11:04,VALID,1007.72,VALID,0,INVALID,127.838,VALID,0,VALID,24.6879,VALID,323,VALID,0,
2014-10-18, 02:12:04,VALID,1007.77,VALID,0,INVALID,128.296,VALID,0,VALID,24.6471,VALID,323,VALID,0,
2014-10-18, 02:13:04,VALID,1007.77,VALID,0,INVALID,129.287,VALID,0,VALID,24.6684,VALID,323,VALID,0,
2014-10-18, 02:14:04,VALID,1007.82,VALID,0,INVALID,130.05,VALID,0,VALID,24.6489,VALID,323,VALID,0,
2014-10-18, 02:15:04,VALID,1007.85,VALID,0,INVALID,130.782,VALID,0,VALID,24.6489,VALID,323,VALID,0,
2014-10-18, 02:16:04,VALID,1007.91,VALID,0,INVALID,131.567,VALID,0,VALID,24.6489,VALID,323,VALID,0,
2014-10-18, 02:17:04,VALID,1007.94,VALID,0,INVALID,132.406,VALID,0,VALID,24.6489,VALID,323,VALID,0,
2014-10-18, 02:18:04,VALID,1007.97,VALID,0,INVALID,133.161,VALID,0,VALID,24.6684,VALID,323,VALID,0,
2014-10-18, 02:19:04,VALID,1007.99,VALID,0,INVALID,133.565,VALID,0,VALID,24.6684,VALID,323,VALID,0,
2014-10-18, 02:20:04,VALID,1007.98,VALID,0,INVALID,133.992,VALID,0,VALID,24.6684,VALID,323,VALID,0,
2014-10-18, 02:21:04,VALID,1007.99,VALID,0,INVALID,134.404,VALID,0,VALID,24.6684,VALID,323,VALID,0,
2014-10-18, 02:22:04,VALID,1008.01,VALID,0,INVALID,134.579,VALID,0,VALID,24.6879,VALID,323,VALID,0,
2014-10-18, 02:23:04,VALID,1008,VALID,0,INVALID,134.755,VALID,0,VALID,24.7074,VALID,323,VALID,0,
2014-10-18, 02:24:04,VALID,1007.99,VALID,0,INVALID,134.831,VALID,0,VALID,24.7074,VALID,323,VALID,0,
2014-10-18, 02:25:04,VALID,1007.98,VALID,0,INVALID,135.029,VALID,0,VALID,24.7074,VALID,323,VALID,0,
2014-10-18, 02:26:04,VALID,1007.95,VALID,0,INVALID,135.182,VALID,0,VALID,24.686,VALID,323,VALID,0,
2014-10-18, 02:27:04,VALID,1007.93,VALID,0,INVALID,135.319,VALID,0,VALID,24.7269,VALID,323,VALID,0,
2014-10-18, 02:28:04,VALID,1007.92,VALID,0,INVALID,135.411,VALID,0,VALID,24.7464,VALID,323,VALID,0,
2014-10-18, 02:29:04,VALID,1007.9,VALID,0,INVALID,135.472,VALID,0,VALID,24.7659,VALID,323,VALID,0,
2014-10-18, 02:30:04,VALID,1007.92,VALID,0,INVALID,135.472,VALID,0,VALID,24.7659,VALID,323,VALID,0,
2014-10-18, 02:31:04,VALID,1007.93,VALID,0,INVALID,135.472,VALID,0,VALID,24.7835,VALID,323,VALID,0,
2014-10-18, 02:32:04,VALID,1007.92,VALID,0,INVALID,135.479,VALID,0,VALID,24.8244,VALID,323,VALID,0,
2014-10-18, 02:33:04,VALID,1007.91,VALID,0,INVALID,135.555,VALID,0,VALID,24.8438,VALID,323,VALID,0,
2014-10-18, 02:34:04,VALID,1007.9,VALID,0,INVALID,135.571,VALID,0,VALID,24.8633,VALID,323,VALID,0,
2014-10-18, 02:35:04,VALID,1007.93,VALID,0,INVALID,135.594,VALID,0,VALID,24.8828,VALID,323,VALID,0,
2014-10-18, 02:36:04,VALID,1007.88,VALID,0,INVALID,135.594,VALID,0,VALID,24.8615,VALID,323,VALID,0,
2014-10-18, 02:37:04,VALID,1007.87,VALID,0,INVALID,135.54,VALID,0,VALID,24.8615,VALID,323,VALID,0,
2014-10-18, 02:38:04,VALID,1007.89,VALID,0,INVALID,135.449,VALID,0,VALID,24.8828,VALID,323,VALID,0,
2014-10-18, 02:39:04,VALID,1007.88,VALID,0,INVALID,135.426,VALID,0,VALID,24.9023,VALID,323,VALID,0,
2014-10-18, 02:40:04,VALID,1007.86,VALID,0,INVALID,135.266,VALID,0,VALID,24.8828,VALID,323,VALID,0,
2014-10-18, 02:41:04,VALID,1007.83,VALID,0,INVALID,135.083,VALID,0,VALID,24.8828,VALID,323,VALID,0,
2014-10-18, 02:42:04,VALID,1007.79,VALID,0,INVALID,135.052,VALID,0,VALID,24.8615,VALID,323,VALID,0,
2014-10-18, 02:43:04,VALID,1007.73,VALID,0,INVALID,135.014,VALID,0,VALID,24.9023,VALID,323,VALID,0,
2014-10-18, 02:44:04,VALID,1007.73,VALID,0,INVALID,134.328,VALID,0.112112,VALID,24.9023,VALID,323,VALID,0,
2014-10-18, 02:45:04,VALID,1007.71,VALID,0,INVALID,133.565,VALID,0,VALID,24.8615,VALID,323,VALID,0,
2014-10-18, 02:46:04,VALID,1007.69,VALID,0,INVALID,133.1,VALID,0,VALID,24.8828,VALID,323,VALID,0,
2014-10-18, 02:47:04,VALID,1007.67,VALID,0,INVALID,132.558,VALID,0,VALID,24.8828,VALID,323,VALID,0,
2014-10-18, 02:48:04,VALID,1007.66,VALID,0,INVALID,132.261,VALID,0,VALID,24.9023,VALID,323,VALID,0,
2014-10-18, 02:49:04,VALID,1007.65,VALID,0,INVALID,131.567,VALID,0,VALID,24.9023,VALID,323,VALID,0,
2014-10-18, 02:50:04,VALID,1007.62,VALID,0,INVALID,130.698,VALID,0,VALID,24.9023,VALID,323,VALID,0,
2014-10-18, 02:51:04,VALID,1007.65,VALID,0,INVALID,129.874,VALID,0,VALID,24.9023,VALID,323,VALID,0,
2014-10-18, 02:52:04,VALID,1007.64,VALID,0,INVALID,128.906,VALID,0,VALID,24.9004,VALID,323,VALID,0,
2014-10-18, 02:53:04,VALID,1007.61,VALID,0,INVALID,127.899,VALID,0,VALID,24.9218,VALID,323,VALID,0,
2014-10-18, 02:54:04,VALID,1007.62,VALID,0,INVALID,127.67,VALID,0,VALID,24.9199,VALID,323,VALID,0,
2014-10-18, 02:55:04,VALID,1007.64,VALID,0,INVALID,126.473,VALID,0,VALID,24.9218,VALID,323,VALID,0,
2014-10-18, 02:56:04,VALID,1007.64,VALID,0,INVALID,125.756,VALID,0,VALID,24.9218,VALID,323,VALID,0,
2014-10-18, 02:57:04,VALID,1007.68,VALID,0,INVALID,125.314,VALID,0,VALID,24.9023,VALID,323,VALID,0,
2014-10-18, 02:58:04,VALID,1007.71,VALID,0,INVALID,124.231,VALID,0,VALID,24.9023,VALID,323,VALID,0,
2014-10-18, 02:59:04,VALID,1007.76,VALID,0,INVALID,123.926,VALID,0,VALID,24.9023,VALID,323,VALID,0,
2014-10-18, 03:00:04,VALID,1007.79,VALID,0,INVALID,123.072,VALID,0,VALID,24.842,VALID,323,VALID,0,
2014-10-18, 03:01:04,VALID,1007.81,VALID,0,INVALID,122.981,VALID,0,VALID,24.8828,VALID,323,VALID,0,
2014-10-18, 03:02:04,VALID,1007.83,VALID,0,INVALID,122.881,VALID,0,VALID,24.8828,VALID,323,VALID,0,
2014-10-18, 03:03:04,VALID,1007.84,VALID,0,INVALID,123.118,VALID,0,VALID,24.8828,VALID,323,VALID,0,
2014-10-18, 03:04:04,VALID,1007.84,VALID,0,INVALID,123.789,VALID,0,VALID,24.9042,VALID,323,VALID,0,
2014-10-18, 03:05:04,VALID,1007.85,VALID,0,INVALID,123.865,VALID,0,VALID,24.8615,VALID,323,VALID,0,
2014-10-18, 03:06:04,VALID,1007.84,VALID,0,INVALID,124.681,VALID,0,VALID,24.8615,VALID,323,VALID,0,
2014-10-18, 03:07:04,VALID,1007.86,VALID,0,INVALID,124.033,VALID,0,VALID,24.8225,VALID,323,VALID,0,
2014-10-18, 03:08:04,VALID,1007.89,VALID,0,INVALID,124.346,VALID,0,VALID,24.803,VALID,323,VALID,0,
2014-10-18, 03:09:04,VALID,1007.87,VALID,0,INVALID,125.81,VALID,0,VALID,24.8049,VALID,323,VALID,0,
2014-10-18, 03:10:04,VALID,1007.93,VALID,0,INVALID,126.267,VALID,0,VALID,24.8244,VALID,323,VALID,0,
2014-10-18, 03:11:04,VALID,1007.91,VALID,0,INVALID,126.618,VALID,0,VALID,24.8049,VALID,323,VALID,0,
2014-10-18, 03:12:04,VALID,1007.9,VALID,0,INVALID,127.205,VALID,0,VALID,24.8049,VALID,323,VALID,0,
2014-10-18, 03:13:04,VALID,1007.92,VALID,0,INVALID,127.93,VALID,0,VALID,24.803,VALID,323,VALID,0,
2014-10-18, 03:14:04,VALID,1007.92,VALID,0,INVALID,128.242,VALID,0,VALID,24.8049,VALID,323,VALID,0,
2014-10-18, 03:15:04,VALID,1007.93,VALID,0,INVALID,128.357,VALID,0,VALID,24.8049,VALID,323,VALID,0,
2014-10-18, 03:16:04,VALID,1007.95,VALID,0,INVALID,128.418,VALID,0,VALID,24.8049,VALID,323,VALID,0,
2014-10-18, 03:17:04,VALID,1007.96,VALID,0,INVALID,128.517,VALID,0,VALID,24.7835,VALID,323,VALID,0,
2014-10-18, 03:18:04,VALID,1007.96,VALID,0,INVALID,128.86,VALID,0,VALID,24.8049,VALID,323,VALID,0,
2014-10-18, 03:19:04,VALID,1008,VALID,0,INVALID,129.592,VALID,0,VALID,24.8244,VALID,323,VALID,0,
2014-10-18, 03:20:04,VALID,1007.96,VALID,0,INVALID,129.973,VALID,0,VALID,24.8244,VALID,323,VALID,0,
2014-10-18, 03:21:04,VALID,1007.95,VALID,0,INVALID,130.553,VALID,0.112112,VALID,24.8244,VALID,323,VALID,0,
2014-10-18, 03:22:04,VALID,1007.94,VALID,0,INVALID,131.521,VALID,0,VALID,24.8244,VALID,323,VALID,0,
2014-10-18, 03:23:04,VALID,1007.94,VALID,0,INVALID,131.148,VALID,0.112112,VALID,24.8244,VALID,323,VALID,0,
2014-10-18, 03:24:04,VALID,1007.96,VALID,0,INVALID,130.37,VALID,0.112112,VALID,24.803,VALID,323,VALID,0,
2014-10-18, 03:25:04,VALID,1007.97,VALID,0,INVALID,130.896,VALID,0,VALID,24.8049,VALID,323,VALID,0,
2014-10-18, 03:26:04,VALID,1007.98,VALID,0,INVALID,131.537,VALID,0.112112,VALID,24.803,VALID,323,VALID,0,
2014-10-18, 03:27:04,VALID,1007.97,VALID,0,INVALID,131.926,VALID,0,VALID,24.8049,VALID,323,VALID,0,
2014-10-18, 03:28:04,VALID,1008,VALID,0,INVALID,132.276,VALID,0,VALID,24.8049,VALID,323,VALID,0,
2014-10-18, 03:29:04,VALID,1008,VALID,0,INVALID,132.658,VALID,0,VALID,24.8244,VALID,323,VALID,0,
2014-10-18, 03:30:04,VALID,1007.98,VALID,0,INVALID,132.17,VALID,0,VALID,24.8049,VALID,323,VALID,0,
2014-10-18, 03:31:04,VALID,1008,VALID,0,INVALID,132.444,VALID,0,VALID,24.8049,VALID,323,VALID,0,
2014-10-18, 03:32:04,VALID,1008,VALID,0,INVALID,133.001,VALID,0,VALID,24.8438,VALID,323,VALID,0,
2014-10-18, 03:33:04,VALID,1008.02,VALID,0,INVALID,133.123,VALID,0,VALID,24.8438,VALID,323,VALID,0,
2014-10-18, 03:34:04,VALID,1008.03,VALID,0,INVALID,132.619,VALID,0,VALID,24.8438,VALID,323,VALID,0,
2014-10-18, 03:35:04,VALID,1008.04,VALID,0,INVALID,132.52,VALID,0,VALID,24.8828,VALID,323,VALID,0,
2014-10-18, 03:36:04,VALID,1008.07,VALID,0,INVALID,132.307,VALID,0,VALID,24.8615,VALID,323,VALID,0,
2014-10-18, 03:37:04,VALID,1008.06,VALID,0,INVALID,131.918,VALID,0,VALID,24.9237,VALID,323,VALID,0,
2014-10-18, 03:38:04,VALID,1008.04,VALID,0,INVALID,131.125,VALID,0,VALID,24.9023,VALID,323,VALID,0,
2014-10-18, 03:39:04,VALID,1008.09,VALID,0,INVALID,129.76,VALID,0,VALID,24.9023,VALID,323,VALID,0,
2014-10-18, 03:40:04,VALID,1008.08,VALID,0,INVALID,129.173,VALID,0,VALID,24.9023,VALID,323,VALID,0,
2014-10-18, 03:41:04,VALID,1008.09,VALID,0,INVALID,128.761,VALID,0,VALID,24.9218,VALID,323,VALID,0,
2014-10-18, 03:42:04,VALID,1008.1,VALID,0,INVALID,127.342,VALID,0,VALID,24.9023,VALID,323,VALID,0,
2014-10-18, 03:43:04,VALID,1008.12,VALID,0,INVALID,127.586,VALID,0,VALID,24.9023,VALID,323,VALID,0,
2014-10-18, 03:44:04,VALID,1008.13,VALID,0,INVALID,127.198,VALID,0,VALID,24.9023,VALID,323,VALID,0,
2014-10-18, 03:45:04,VALID,1008.12,VALID,0,INVALID,125.787,VALID,0,VALID,24.8633,VALID,323,VALID,0,
2014-10-18, 03:46:04,VALID,1008.13,VALID,0,INVALID,125.505,VALID,0,VALID,24.8438,VALID,323,VALID,0,
2014-10-18, 03:47:04,VALID,1008.14,VALID,0,INVALID,126.786,VALID,0,VALID,24.8438,VALID,323,VALID,0,
2014-10-18, 03:48:04,VALID,1008.14,VALID,0,INVALID,128.006,VALID,0,VALID,24.8244,VALID,323,VALID,0,
2014-10-18, 03:49:04,VALID,1008.17,VALID,0,INVALID,130.431,VALID,0,VALID,24.8262,VALID,323,VALID,0,
2014-10-18, 03:50:04,VALID,1008.18,VALID,0,INVALID,131.773,VALID,0,VALID,24.8244,VALID,323,VALID,0,
2014-10-18, 03:51:04,VALID,1008.19,VALID,0,INVALID,132.314,VALID,0,VALID,24.8049,VALID,323,VALID,0,
2014-10-18, 03:52:04,VALID,1008.21,VALID,0,INVALID,133.283,VALID,0,VALID,24.8049,VALID,323,VALID,0,
2014-10-18, 03:53:04,VALID,1008.23,VALID,0,INVALID,133.87,VALID,0,VALID,24.8049,VALID,323,VALID,0,
2014-10-18, 03:54:04,VALID,1008.25,VALID,0,INVALID,134.442,VALID,0,VALID,24.8049,VALID,323,VALID,0,
2014-10-18, 03:55:04,VALID,1008.25,VALID,0,INVALID,134.495,VALID,0,VALID,24.8049,VALID,323,VALID,0,
2014-10-18, 03:56:04,VALID,1008.27,VALID,0,INVALID,134.526,VALID,0,VALID,24.8049,VALID,323,VALID,0,
2014-10-18, 03:57:04,VALID,1008.25,VALID,0,INVALID,135.128,VALID,0,VALID,24.8049,VALID,323,VALID,0,